OBJECT BE (43810 NORAD) Tracking and Keplerian Element Data

This shows tracking and keplerian element data for the satellite.

Feedback or suggestion? Click here.




ElementValue
Catalog43810
NameOBJECT BE
Epoch Orbit627
Epoch Day17.78690434
Epoch Year2019
RAAN91.4616
Inclination97.7534
Eccentricity0.0015859
Argument of Perigee110.603
Mean Anonmoly249.6893
Mean Motion14.95313372
Decay Rate-1.66E-06
L11 43810U 18099BE 19017.78690434 -.00000166 00000-0 -97729-5 0 9996
L22 43810 97.7534 91.4616 0015859 110.6030 249.6893 14.95313372 6273

Live tracking and technical data element details for OBJECT BE (NORAD 43810). OBJECT BE can be tracked NOW for your location showing map with azimuth and elevation plus other details from your city location.

Track the satellite on the map from your city or location and see movement details for azimuth, elevation, latitude, longitude, range, height, and movement on the map or in text.







IsCatalogInMostPopularTable: catalog: 43810, numindb: 23
Update: records affected: 1



GetName: 43810 OBJECT BE

Hit Count: updated at: Wed, 23 Jan 2019 03:43:46 GMT